[keps] orb08297.amsat
Ray Hoad
r.hoad at att.net
Thu Oct 23 19:47:51 PDT 2008
SB KEPS @ AMSAT $ORB08297.O
Orbital Elements 08297.OSCAR
HR AMSAT ORBITAL ELEMENTS FOR OSCAR SATELLITES
FROM WA5QGD FORT WORTH,TX October 23, 2008
Send Subscribe/unsubscribe to KEPS at
http://www.amsat.org/mailman/listinfo/keps
BID: ORB08297.O
TO ALL RADIO AMATEURS BT
Satellite: AO-07
Catalog number: 07530
Epoch time: 08296.66471049
Element set: 0309
Inclination: 101.4551 deg
RA of node: 323.8453 deg
Eccentricity: 0.0011954
Arg of perigee: 014.0397 deg
Mean anomaly: 346.1004 deg
Mean motion: 12.53574527 rev/day
Decay rate: -2.7e-07 rev/day^2
Epoch rev: 55295
Checksum: 291
Satellite: AO-10
Catalog number: 14129
Epoch time: 08296.87896683
Element set: 578
Inclination: 026.0297 deg
RA of node: 189.5418 deg
Eccentricity: 0.5960427
Arg of perigee: 167.3579 deg
Mean anomaly: 219.2459 deg
Mean motion: 02.05869307 rev/day
Decay rate: -1.65e-06 rev/day^2
Epoch rev: 19073
Checksum: 366
Satellite: UO-11
Catalog number: 14781
Epoch time: 08296.58930616
Element set: 0794
Inclination: 098.1423 deg
RA of node: 332.4426 deg
Eccentricity: 0.0009599
Arg of perigee: 029.2446 deg
Mean anomaly: 330.9292 deg
Mean motion: 14.79669409 rev/day
Decay rate: -2.56e-06 rev/day^2
Epoch rev: 32269
Checksum: 345
Satellite: RS-15
Catalog number: 23439
Epoch time: 08296.90719213
Element set: 0194
Inclination: 064.8167 deg
RA of node: 288.5196 deg
Eccentricity: 0.0145767
Arg of perigee: 098.0762 deg
Mean anomaly: 263.6728 deg
Mean motion: 11.27552487 rev/day
Decay rate: -3.9e-07 rev/day^2
Epoch rev: 56936
Checksum: 360
Satellite: FO-29
Catalog number: 24278
Epoch time: 08297.79843357
Element set: 888
Inclination: 098.5771 deg
RA of node: 197.1990 deg
Eccentricity: 0.0349770
Arg of perigee: 242.5691 deg
Mean anomaly: 113.9471 deg
Mean motion: 13.52939629 rev/day
Decay rate: -5.5e-07 rev/day^2
Epoch rev: 60178
Checksum: 381
Satellite: SO-33
Catalog number: 25509
Epoch time: 08296.47557959
Element set: 0309
Inclination: 031.4325 deg
RA of node: 316.6168 deg
Eccentricity: 0.0354311
Arg of perigee: 060.1397 deg
Mean anomaly: 303.3951 deg
Mean motion: 14.28230448 rev/day
Decay rate: 1.90e-06 rev/day^2
Epoch rev: 52182
Checksum: 305
Satellite: AO-40
Catalog number: 26609
Epoch time: 08296.95933999
Element set: 141
Inclination: 007.9800 deg
RA of node: 053.4363 deg
Eccentricity: 0.7938245
Arg of perigee: 136.6768 deg
Mean anomaly: 324.5867 deg
Mean motion: 01.25585453 rev/day
Decay rate: -4.07e-06 rev/day^2
Epoch rev: 3664
Checksum: 351
Satellite: VO-52
Catalog number: 28650
Epoch time: 08296.31559253
Element set: 0063
Inclination: 097.7750 deg
RA of node: 359.3417 deg
Eccentricity: 0.0028351
Arg of perigee: 086.7565 deg
Mean anomaly: 273.6861 deg
Mean motion: 14.81510966 rev/day
Decay rate: -2.9e-07 rev/day^2
Epoch rev: 18742
Checksum: 337
Satellite: PO-63
Catalog number: 29712
Epoch time: 08297.72727790
Element set: 906
Inclination: 097.8611 deg
RA of node: 353.4123 deg
Eccentricity: 0.0013809
Arg of perigee: 328.5226 deg
Mean anomaly: 031.5159 deg
Mean motion: 14.80308504 rev/day
Decay rate: 6.54e-06 rev/day^2
Epoch rev: 9648
Checksum: 323
/EX
SB KEPS @ AMSAT $ORB08297.D
Orbital Elements 08297.MICROS
HR AMSAT ORBITAL ELEMENTS FOR THE MICROSATS
FROM WA5QGD FORT WORTH,TX October 23, 2008
Send Subscribe/unsubscribe to KEPS at
http://www.amsat.org/mailman/listinfo/keps
BID: ORB08297.D
TO ALL RADIO AMATEURS BT
Satellite: AO-16
Catalog number: 20439
Epoch time: 08296.46657763
Element set: 0447
Inclination: 098.2470 deg
RA of node: 270.1259 deg
Eccentricity: 0.0011258
Arg of perigee: 153.5509 deg
Mean anomaly: 206.6255 deg
Mean motion: 14.31805840 rev/day
Decay rate: 1.0e-07 rev/day^2
Epoch rev: 97913
Checksum: 311
Satellite: LO-19
Catalog number: 20442
Epoch time: 08297.61074273
Element set: 370
Inclination: 098.2153 deg
RA of node: 279.3447 deg
Eccentricity: 0.0012127
Arg of perigee: 147.6935 deg
Mean anomaly: 212.4996 deg
Mean motion: 14.32043364 rev/day
Decay rate: -1.2e-07 rev/day^2
Epoch rev: 97945
Checksum: 312
Satellite: AO-27
Catalog number: 22825
Epoch time: 08296.54372049
Element set: 89
Inclination: 098.4024 deg
RA of node: 251.8922 deg
Eccentricity: 0.0007583
Arg of perigee: 242.5483 deg
Mean anomaly: 117.4924 deg
Mean motion: 14.29249986 rev/day
Decay rate: 1.04e-06 rev/day^2
Epoch rev: 78596
Checksum: 343
Satellite: IO-26
Catalog number: 22826
Epoch time: 08297.41551610
Element set: 803
Inclination: 098.3960 deg
RA of node: 253.5868 deg
Eccentricity: 0.0008085
Arg of perigee: 237.8634 deg
Mean anomaly: 122.1765 deg
Mean motion: 14.29499446 rev/day
Decay rate: 2.0e-08 rev/day^2
Epoch rev: 78618
Checksum: 334
Satellite: GO-32
Catalog number: 25397
Epoch time: 08297.77223891
Element set: 729
Inclination: 098.3523 deg
RA of node: 326.5081 deg
Eccentricity: 0.0000732
Arg of perigee: 176.0345 deg
Mean anomaly: 184.0846 deg
Mean motion: 14.23149653 rev/day
Decay rate: 2.0e-08 rev/day^2
Epoch rev: 53450
Checksum: 307
Satellite: NO-44
Catalog number: 26931
Epoch time: 08297.59944377
Element set: 8
Inclination: 067.0526 deg
RA of node: 313.8482 deg
Eccentricity: 0.0007069
Arg of perigee: 258.4544 deg
Mean anomaly: 101.5760 deg
Mean motion: 14.29535838 rev/day
Decay rate: -1.70e-06 rev/day^2
Epoch rev: 36876
Checksum: 337
Satellite: SO-50
Catalog number: 27607
Epoch time: 08297.53249494
Element set: 729
Inclination: 064.5602 deg
RA of node: 023.8453 deg
Eccentricity: 0.0085366
Arg of perigee: 254.5658 deg
Mean anomaly: 104.6000 deg
Mean motion: 14.71388838 rev/day
Decay rate: 3.5e-07 rev/day^2
Epoch rev: 31385
Checksum: 323
Satellite: CO-55
Catalog number: 27844
Epoch time: 08296.49762961
Element set: 0423
Inclination: 098.7168 deg
RA of node: 303.0098 deg
Eccentricity: 0.0010629
Arg of perigee: 106.7841 deg
Mean anomaly: 253.4501 deg
Mean motion: 14.20601761 rev/day
Decay rate: 1.1e-07 rev/day^2
Epoch rev: 27551
Checksum: 301
Satellite: CO-57
Catalog number: 27848
Epoch time: 08296.01979410
Element set: 0375
Inclination: 098.7176 deg
RA of node: 301.6141 deg
Eccentricity: 0.0010342
Arg of perigee: 111.2207 deg
Mean anomaly: 249.0053 deg
Mean motion: 14.20409272 rev/day
Decay rate: 1.4e-07 rev/day^2
Epoch rev: 27541
Checksum: 279
Satellite: AO-51
Catalog number: 28375
Epoch time: 08296.56894471
Element set: 227
Inclination: 098.0645 deg
RA of node: 313.9388 deg
Eccentricity: 0.0084303
Arg of perigee: 125.6358 deg
Mean anomaly: 235.2724 deg
Mean motion: 14.40621460 rev/day
Decay rate: 7.0e-08 rev/day^2
Epoch rev: 22674
Checksum: 319
Satellite: CO-56
Catalog number: 28941
Epoch time: 08297.81725096
Element set: 487
Inclination: 098.1183 deg
RA of node: 066.8187 deg
Eccentricity: 0.0144453
Arg of perigee: 291.7468 deg
Mean anomaly: 066.8447 deg
Mean motion: 15.63221857 rev/day
Decay rate: 2.4926e-04 rev/day^2
Epoch rev: 15009
Checksum: 363
Satellite: CP3
Catalog number: 31128
Epoch time: 08296.61685571
Element set: 0464
Inclination: 098.0241 deg
RA of node: 354.5705 deg
Eccentricity: 0.0101881
Arg of perigee: 301.1673 deg
Mean anomaly: 057.9580 deg
Mean motion: 14.51983675 rev/day
Decay rate: -4.8e-07 rev/day^2
Epoch rev: 08042
Checksum: 309
Satellite: CP4
Catalog number: 31132
Epoch time: 08296.64668180
Element set: 0447
Inclination: 098.0292 deg
RA of node: 357.3899 deg
Eccentricity: 0.0084646
Arg of perigee: 293.0692 deg
Mean anomaly: 066.1578 deg
Mean motion: 14.55150278 rev/day
Decay rate: -6.7e-07 rev/day^2
Epoch rev: 08048
Checksum: 341
Satellite: CO-65
Catalog number: 32785
Epoch time: 08297.72605516
Element set: 190
Inclination: 097.9793 deg
RA of node: 357.2305 deg
Eccentricity: 0.0016234
Arg of perigee: 079.9750 deg
Mean anomaly: 280.3290 deg
Mean motion: 14.81404509 rev/day
Decay rate: -4.0e-08 rev/day^2
Epoch rev: 2643
Checksum: 318
/EX
SB KEPS @ AMSAT $ORB08297.W
Orbital Elements 08297.WEATHER
HR AMSAT ORBITAL ELEMENTS FOR WEATHER SATELLITES
FROM WA5QGD FORT WORTH,TX October 23, 2008
Send Subscribe/unsubscribe to KEPS at
http://www.amsat.org/mailman/listinfo/keps
BID: ORB08297.W
TO ALL RADIO AMATEURS BT
Satellite: NOAA-10
Catalog number: 16969
Epoch time: 08296.52426254
Element set: 0337
Inclination: 098.7151 deg
RA of node: 318.1990 deg
Eccentricity: 0.0012389
Arg of perigee: 166.6880 deg
Mean anomaly: 193.4639 deg
Mean motion: 14.27370883 rev/day
Decay rate: 5.0e-08 rev/day^2
Epoch rev: 14960
Checksum: 335
Satellite: NOAA-11
Catalog number: 19531
Epoch time: 08296.31710188
Element set: 0368
Inclination: 098.7946 deg
RA of node: 023.8490 deg
Eccentricity: 0.0012309
Arg of perigee: 067.7343 deg
Mean anomaly: 292.5173 deg
Mean motion: 14.14879577 rev/day
Decay rate: -7.2e-07 rev/day^2
Epoch rev: 03588
Checksum: 333
Satellite: NOAA-12
Catalog number: 21263
Epoch time: 08296.94481048
Element set: 0902
Inclination: 098.7725 deg
RA of node: 298.9203 deg
Eccentricity: 0.0013239
Arg of perigee: 112.4011 deg
Mean anomaly: 247.8572 deg
Mean motion: 14.25550773 rev/day
Decay rate: 1.8e-07 rev/day^2
Epoch rev: 90659
Checksum: 313
Satellite: MET-3/5
Catalog number: 21655
Epoch time: 08296.89756502
Element set: 0521
Inclination: 082.5595 deg
RA of node: 014.1495 deg
Eccentricity: 0.0014604
Arg of perigee: 057.6017 deg
Mean anomaly: 302.6516 deg
Mean motion: 13.17015012 rev/day
Decay rate: 5.1e-07 rev/day^2
Epoch rev: 82639
Checksum: 290
Satellite: MET-2/21
Catalog number: 22782
Epoch time: 08296.33788139
Element set: 0283
Inclination: 082.5519 deg
RA of node: 010.7008 deg
Eccentricity: 0.0021036
Arg of perigee: 295.3822 deg
Mean anomaly: 064.5149 deg
Mean motion: 13.83633140 rev/day
Decay rate: 6.0e-08 rev/day^2
Epoch rev: 76471
Checksum: 299
Satellite: OKEAN-4
Catalog number: 23317
Epoch time: 08297.69163946
Element set: 727
Inclination: 082.5400 deg
RA of node: 195.1618 deg
Eccentricity: 0.0023892
Arg of perigee: 065.4021 deg
Mean anomaly: 294.9706 deg
Mean motion: 14.82644220 rev/day
Decay rate: 1.02e-06 rev/day^2
Epoch rev: 75732
Checksum: 305
